Flag for Canada Weather past 2 weeks in Halifax, Nova Scotia, Canada

Now
30 °F

Passing clouds.


Feels Like: 21 °F
Forecast: 26 / 42 °F
Wind: 10 mph from Northwest

Location: Halifax International Airport


UV Index: 5 (Moderate)

Visibility: 15 mi


Pressure: 30.42 "Hg

Humidity: 80%

Dew point: 25 °F

Location of HalifaxLocation

Historic Weather in Halifax

°F

Halifax temperature yesterday

Maximum temperature yesterday: 64 °F (at 2:00 PM)
Minimum temperature yesterday: 50 °F (at 4:00 AM)
Average temperature yesterday: 56 °F

Past Weeks' High & Low Weather Summary

 TemperatureHumidityPressure
High64 °F (Apr 14, 4:00 PM)100% (Apr 4, 5:00 AM)30.43 "Hg (Apr 4, 5:00 AM)
Low27 °F (Apr 1, 9:00 PM)23% (Apr 10, 5:00 PM)29.32 "Hg (Apr 9, 4:00 AM)
Average41 °F80%29.98 "Hg
* Reported Apr 1 9:00 PM — Apr 16 9:00 PM, Halifax, Weather by CustomWeather, © 2014

Note: Actual official high and low records may vary slightly from our data, if they occured in-between our weather recording intervals... More about our weather records

Advertising

Historic Weather Conditions — Data for Previous 24 hours

 ConditionsComfort  
Time TempWeatherWind HumidityBarometerVisibility
9:00 PM
Apr 16
32 °FClear.10 mph75%30.37 "Hg15 mi
8:00 PM34 °FScattered clouds.16 mph70%30.31 "Hg15 mi
7:00 PM36 °FPartly sunny.21 mph70%30.25 "Hg15 mi
6:00 PM37 °FPartly sunny.18 mph70%30.19 "Hg15 mi
5:00 PM37 °FPartly sunny.20 mph75%30.14 "Hg15 mi
4:00 PM37 °FMostly cloudy.25 mph81%30.08 "Hg15 mi
3:00 PM39 °FMore clouds than sun.20 mph87%30.03 "Hg15 mi
2:00 PM39 °FLight rain. Low clouds.24 mph87%29.98 "Hg15 mi
1:00 PM46 °FLight rain. Fog.18 mph93%29.89 "Hg10 mi
12:50 PM52 °FLight rain. Fog.10 mph94%29.88 "Hg6 mi
12:00 PM48 °FLight rain. Fog.7 mph100%29.85 "Hg6 mi
11:48 AM48 °FLight rain. Fog.9 mph100%29.85 "Hg6 mi
11:00 AM52 °FLight rain. Fog.21 mph94%29.80 "Hg2 mi
10:00 AM55 °FFog.26 mph100%29.74 "Hg1 mi
9:50 AM55 °FLight rain. Fog.25 mph100%29.75 "Hg1 mi
9:00 AM55 °FFog.32 mph94%29.75 "Hg1 mi
8:00 AM54 °FFog.24 mph100%29.75 "Hg1 mi
7:00 AM54 °FFog.24 mph94%29.76 "Hg1 mi
6:00 AM54 °FFog.26 mph94%29.78 "Hg2 mi
5:00 AM55 °FFog.29 mph94%29.80 "Hg3 mi
4:00 AM55 °FFog.23 mph94%29.83 "Hg3 mi
3:00 AM55 °FSprinkles. Fog.25 mph100%29.85 "Hg5 mi
2:00 AM57 °FSprinkles. Fog.26 mph94%29.86 "Hg3 mi
1:00 AM57 °FRain showers. Fog.25 mph94%29.89 "Hg3 mi
12:00 AM55 °FSprinkles. Fog.23 mph94%29.91 "Hg2 mi
11:00 PM
Apr 15
57 °FFog.20 mph94%29.93 "Hg4 mi
10:00 PM57 °FSprinkles. Fog.28 mph94%29.94 "Hg6 mi
Weather by CustomWeather, © 2014

See weather overview